Preview of NWS' New Version of Forecast
This preview is not operational and should not be used for support decisions.
Latest weather observations around

Bakersfield, Meadows Field Airport (KBFL)

Using International System of Units (Switch to English Units)
Date/ Time (PDT) Wind (kph) Vis. (km) Weather Sky Cond. Temp (°C) Rel. Humidity Wind Chill (°C) Heat Index (°C) Pressure Precip. (cm)
Air Dwpt 6 hour Altimeter (hPa) Sea level (hPa) 1 hr 3 hr 6 hr
Max Min
Jul 21 19:54 NW 13 16.09 Clear CLR 33 14     32%   33 1009.8 1009      
Jul 21 18:54 NNW 17 16.09 Clear CLR 35 12     25%   34 1009.5 1008.6      
Jul 21 17:54 WNW 21 16.09 Clear CLR 37 13     24%   36 1009.2 1008.5      
Jul 21 16:54 NW 18 16.09 Clear CLR 37 12     23%   36 1009.5 1008.8      
Jul 21 15:54 NW 13 16.09 Clear CLR 36 13     25%   35 1010.2 1009.4      
Jul 21 14:54 WNW 13 16.09 Clear CLR 35 14     29%   34 1010.8 1010      
Jul 21 13:54 NW 15 16.09 Clear CLR 34 14     31%   33 1011.5 1010.6      
Jul 21 12:54 NW 13 16.09 Clear CLR 33 14     32%   32 1011.9 1011      
Jul 21 11:54 NW 13 16.09 Clear CLR 31 14     35%   30 1012.2 1011.6      
Jul 21 10:54 8 16.09 Clear CLR 29 13     37%   29 1012.5 1011.9      
Jul 21 09:54 8 16.09 Clear CLR 28 14     44%   28 1012.9 1012.1      
Jul 21 08:54 5 16.09 Clear CLR 26 14     47%   26 1012.9 1012      
Jul 21 07:54 SSE 8 16.09 Clear CLR 24 14     52%   24 1012.9 1012      
Jul 21 06:54 SE 9 16.09 Clear CLR 23 14     57%   23 1012.5 1011.6      
Jul 21 05:54 NE 8 16.09 Clear CLR 23 14     57%   23 1011.9 1011      
Jul 21 04:54 NNW 9 16.09 Clear CLR 23 14     57%   23 1011.2 1010.5      
Jul 21 03:54 NNW 8 16.09 Clear CLR 23 13     55%   23 1010.8 1010.2      
Jul 21 02:54 NNW 8 16.09 Clear CLR 24 13     52%   24 1011.2 1010.5      
Jul 21 01:54 NW 9 16.09 Clear CLR 24 12     47%   24 1010.8 1010.2      
Jul 21 00:54 NNW 8 16.09 Clear CLR 25 12     43%   25 1010.5 1009.8      
Jul 20 23:54 NNW 9 16.09 Clear CLR 26 13     45%   25 1010.8 1009.9      
Jul 20 22:54 NNW 15 16.09 Clear CLR 27 13     42%   27 1010.5 1009.6      
Jul 20 21:54 NE 13 16.09 Clear CLR 30 13     35%   29 1009.5 1008.8      
Jul 20 20:54 N 15 16.09 Clear CLR 31 13     34%   30 1009.2 1008.2      
Jul 20 19:54 NNW 13 16.09 Clear CLR 32 12     30%   31 1008.5 1007.8      
Jul 20 18:54 NW 21 16.09 Clear CLR 34 13     28%   33 1008.5 1007.6      
Jul 20 17:54 NNW 18 16.09 Clear CLR 35 11     23%   34 1008.1 1007.3      
Jul 20 16:54 NW 18 16.09 Clear CLR 34 12     26%   33 1008.5 1007.6      
Jul 20 15:54 NW 21 16.09 Clear CLR 34 13     29%   33 1008.8 1008      
Jul 20 14:54 NW 17 16.09 Clear CLR 33 14     31%   33 1009.8 1008.9      
Jul 20 13:54 WNW 17 16.09 Clear CLR 33 14     32%   32 1010.2 1009.5      
Jul 20 12:54 11 16.09 Clear CLR 31 13     34%   30 1011.2 1010.5      
Jul 20 11:54 11 16.09 Clear CLR 29 13     36%   29 1011.9 1011.2      
Jul 20 10:54 NW 9 16.09 Clear CLR 28 13     38%   28 1012.5 1011.7      
Jul 20 09:54 WNW 11 16.09 Clear   27 12     39%   27 1012.5 1012      
Jul 20 08:54 WNW 8 16.09 Clear CLR 25 12     43%   25 1012.9 1012.2      
Jul 20 07:54 NNW 13 16.09 Clear CLR 23 11     46%   23 1012.5 1012      
Jul 20 06:54 NNW 8 16.09 Clear CLR 22 8     40%   22 1012.2 1011.4      
Jul 20 05:54 N 18 16.09 Clear CLR 23 6     32%   23 1011.5 1010.8      
Jul 20 04:54 NE 9 16.09 Clear CLR 22 6     35%   21 1011.2 1010.4      
Jul 20 03:54 NNE 9 16.09 Clear CLR 23 6     33%   23 1010.8 1010      
Jul 20 02:54 N 9 16.09 Clear CLR 23 6     33%   22 1010.8 1010.1      
Jul 20 01:54 Calm 16.09 Clear CLR 24 4     27%   24 1010.8 1010.1      
Jul 20 00:54 NNW 8 16.09 Clear CLR 24 4     26%   24 1010.8 1010      
Jul 19 23:54 NNE 8 16.09 Clear CLR 26 3     23%   25 1010.8 1010      
Jul 19 22:54 N 17 16.09 Clear CLR 27 3     22%   26 1010.2 1009.4      
Jul 19 21:54 N 17 16.09 Clear CLR 27 4     22%   27 1009.8 1009.2      
Jul 19 20:54 N 17 16.09 Clear CLR 28 7     26%   27 1009.2 1008.5      
Jul 19 19:54 NW 24 16.09 Clear CLR 31 7     23%   29 1008.5 1007.8      
Jul 19 18:54 WNW 30 16.09 Clear CLR 33 8     21%   31 1008.5 1007.5      
Jul 19 17:54 NNW 26 16.09 Clear CLR 36 10     21%   34 1008.1 1007.4      
Jul 19 16:54 N 15 16.09 Clear CLR 36 9     20%   34 1008.5 1007.7      
Jul 19 15:54 WNW 17 16.09 Clear CLR 34 11     23%   33 1009.2 1008.2      
Jul 19 14:54 WNW 17 16.09 Clear CLR 34 9     21%   32 1009.5 1008.7      
Jul 19 13:54 W 15 16.09 Clear CLR 34 9     22%   32 1010.2 1009.2      
Jul 19 12:54 W 11 16.09 Clear CLR 32 11     27%   31 1010.5 1009.8      
Jul 19 11:54 9 16.09 Clear CLR 31 12     32%   30 1011.2 1010.5      
Jul 19 10:54 NW 9 16.09 Clear CLR 29 12     34%   28 1011.5 1010.8      
Jul 19 09:54 W 5 16.09 Clear CLR 28 12     37%   27 1011.5 1010.9      
Jul 19 08:54 Calm 16.09 Clear CLR 26 12     41%   26 1011.9 1011      
Jul 19 07:54 Calm 16.09 Clear CLR 24 7     33%   24 1011.9 1011      
Jul 19 06:54 S 5 16.09 Clear CLR 23 3     28%   22 1011.5 1010.8      
Jul 19 05:54 Calm 16.09 Clear CLR 21 2     29%     1011.5 1010.6      
Jul 19 04:54 NNW 8 16.09 Clear CLR 21 1     26%     1011.2 1010.3      
Jul 19 03:54 NNW 5 16.09 Clear CLR 22 1     25%   21 1010.8 1010.1      
Jul 19 02:54 N 11 16.09 Clear CLR 24 0     21%   23 1010.5 1009.7      
Jul 19 01:54 N 13 16.09 Clear CLR 23 1     22%   22 1010.5 1009.8      
Jul 19 00:54 N 11 16.09 Clear CLR 25 3     24%   24 1010.5 1009.8      
Jul 18 23:54 N 11 16.09 Clear CLR 27 3     21%   26 1010.5 1009.9      
Jul 18 22:54 N 15 16.09 Clear CLR 28 4     22%   27 1010.2 1009.2      
Jul 18 21:54 N 17 16.09 Clear CLR 28 7     27%   27 1009.5 1008.8      
Jul 18 20:54 N 18 16.09 Clear CLR 29 9     28%   28 1008.8 1008.1      
Jul 18 19:54 NW 26 16.09 Clear CLR 32 11     27%   31 1008.5 1007.7      
Jul 18 18:54 NNW 18 16.09 Clear CLR 36 9     20%   34 1007.8 1007.1      
Jul 18 17:54 NNW 17 16.09 Clear CLR 37 8     17%   35 1008.1 1007.2      
Jul 18 16:54 NW 18 16.09 Clear CLR 37 8     17%   35 1008.5 1007.7      
Jul 18 15:54 NW 18 16.09 Clear CLR 37 7     16%   35 1008.8 1008      
Jul 18 14:54 NW 18 16.09 Clear CLR 36 9     19%   34 1009.5 1008.8      
Jul 18 13:54 W 15 16.09 Clear CLR 35 8     19%   33 1010.5 1009.5      
Jul 18 12:54 WNW 18 16.09 Clear CLR 34 8     19%   32 1011.2 1010.2      
Jul 18 11:54 WNW 13 16.09 Clear CLR 33 8     21%   31 1011.5 1010.7      
Jul 18 10:54 NW 13 16.09 Clear CLR 32 7     21%   30 1012.2 1011.2      
Jul 18 09:54 N 9 16.09 Clear CLR 31 6     21%   29 1012.5 1011.6      
Jul 18 08:54 Calm 16.09 Clear CLR 29 4     20%   28 1012.5 1011.9      
Jul 18 07:54 Calm 16.09 Clear CLR 27 4     24%   26 1012.9 1011.9      
Jul 18 06:54 Calm 16.09 Clear CLR 24 3     25%   23 1012.5 1011.7      
Jul 18 05:54 Calm 16.09 Clear CLR 22 2     27%   21 1012.2 1011.6      
Jul 18 04:54 NE 5 16.09 Clear CLR 23 0     21%   22 1011.9 1011.2      
Jul 18 03:54 NE 11 16.09 Clear CLR 24 0     21%   23 1011.9 1011.1      
Jul 18 02:54 NE 8 16.09 Clear CLR 24 1     22%   23 1011.9 1011.1      
Jul 18 01:54 NE 9 16.09 Clear CLR 24 0     20%   23 1012.2 1011.3      
Jul 18 00:54 NE 5 16.09 Clear CLR 27 -1     16%   26 1012.2 1011.4      
Jul 17 23:54 N 8 16.09 Clear CLR 27 -2     15%   26 1012.2 1011.3      
Jul 17 22:54 N 13 16.09 Clear CLR 27 -2     14%   26 1011.9 1011      
Jul 17 21:54 NNW 17 16.09 Clear CLR 28 -2     14%   26 1011.2 1010.5      
Jul 17 20:54 NW 24 16.09 Clear CLR 29 3     19%   28 1010.5 1009.7      
Jul 17 19:54 NNW 22 16.09 Clear CLR 33 12     28%   32 1009.5 1008.8      
Jul 17 18:54 NNW 21 16.09 Clear CLR 36 12     24%   34 1009.2 1008.2      
Jul 17 17:54 NNW 21 16.09 Clear CLR 36 12     24%   35 1008.8 1008.1      
Jul 17 16:54 NW 21 16.09 Clear CLR 37 11     21%   35 1009.2 1008.4      
Jul 17 15:54 WNW 18 16.09 Clear CLR 37 11     21%   35 1009.5 1008.5      
Jul 17 14:54 NW 17 16.09 Clear CLR 37 11     21%   35 1009.8 1009      
Jul 17 13:54 WNW 17 16.09 Clear CLR 36 12     24%   35 1010.5 1009.7      
Jul 17 12:54 11 16.09 Clear CLR 33 13     29%   32 1011.2 1010.2      
Jul 17 11:54 WNW 13 16.09 Clear CLR 33 12     29%   32 1011.5 1010.7      
Jul 17 10:54 S 8 16.09 Clear CLR 31 11     29%   30 1011.9 1010.9      
Jul 17 09:54 Calm 16.09 Clear CLR 28 13     38%   28 1011.9 1011.1      
Jul 17 08:54 S 8 16.09 Clear CLR 26 13     45%   26 1012.2 1011.3      
Jul 17 07:54 ESE 8 16.09 Clear CLR 24 13     50%   24 1012.2 1011.5      
Jul 17 06:54 ESE 8 16.09 Clear CLR 23 12     50%   23 1011.5 1010.8      
Jul 17 05:54 NW 9 16.09 Clear CLR 21 11     53%     1011.2 1010.5      
Jul 17 04:54 NW 9 16.09 Clear CLR 21 13     59%     1010.8 1010      
Jul 17 03:54 WNW 9 16.09 Clear CLR 23 12     51%   22 1010.5 1009.8      
Jul 17 02:54 N 13 16.09 Clear CLR 26 9     35%   26 1010.2 1009.5      
Jul 17 01:54 N 15 16.09 Clear CLR 25 11     42%   25 1010.2 1009.5      
Jul 17 00:54 NNW 22 16.09 Clear CLR 27 11     38%   26 1010.5 1009.6      
Jul 16 23:54 NW 13 16.09 Clear CLR 27 13     42%   27 1010.2 1009.5      
Jul 16 22:54 NW 13 16.09 Clear   28 12     37%   28 1010.2 1009.2      
Jul 16 21:54 N 9 16.09 Clear CLR 28 12     36%   28 1009.8 1008.9      
Jul 16 20:54 NNW 9 16.09 Clear CLR 30 11     31%   29 1009.2 1008.3      
Jul 16 19:54 NNW 18 16.09 Clear CLR 33 12     28%   31 1008.5 1007.7      
Jul 16 18:54 NNW 21 16.09 Clear CLR 35 10     22%   33 1008.1 1007.4      
Jul 16 15:54 WNW 18 16.09 Clear CLR 36 7     17%   33 1009.5 1008.7      
Jul 16 14:54 WNW 17 16.09 Clear CLR 35 10     22%   33 1010.2 1009.2      
Jul 16 13:54 NNW 17 16.09 Clear CLR 34 11     23%   33 1010.8 1009.9      
Jul 16 12:54 W 15 16.09 Clear CLR 33 11     27%   31 1011.2 1010.3      
Jul 16 11:54 W 9 16.09 Clear CLR 32 10     26%   30 1011.5 1010.8      
Jul 16 10:54 W 15 16.09 Clear CLR 31 11     29%   29 1011.9 1011.2      
Jul 16 09:54 NW 15 16.09 Clear CLR 29 11     32%   28 1012.2 1011.4      
Jul 16 08:54 Calm 16.09 Clear CLR 28 12     37%   27 1012.2 1011.5      
Jul 16 07:54 SE 9 16.09 Clear CLR 26 13     45%   25 1012.2 1011.5      
Jul 16 06:54 Calm 16.09 Clear CLR 24 12     47%   24 1012.2 1011.3      
Jul 16 05:54 Calm 16.09 Clear CLR 23 11     46%   23 1011.9 1011      
Jul 16 04:54 N 11 16.09 Clear CLR 23 11     45%   23 1011.5 1010.6      
Jul 16 03:54 N 13 16.09 Clear CLR 23 11     46%   23 1011.2 1010.5      
Jul 16 02:54 NW 9 16.09 Clear CLR 23 13     52%   23 1011.2 1010.5      
Jul 16 01:54 NW 9 16.09 Clear CLR 25 13     47%   25 1011.5 1010.7      
Jul 16 00:54 W 8 16.09 Clear CLR 27 12     41%   26 1011.5 1010.9      
Jul 15 23:54 NNW 8 16.09 Clear CLR 28 11     34%   27 1011.5 1010.9      
Jul 15 22:54 N 11 16.09 Clear CLR 30 11     30%   29 1011.5 1010.6      
Jul 15 21:54 N 11 16.09 Clear   31 11     28%   30 1011.2 1010.3      
Jul 15 20:54 NNW 9 16.09 Clear CLR 30 9     28%   29 1010.8 1009.9      
Jul 15 19:54 NNW 13 16.09 Clear CLR 33 8     21%   31 1010.5 1009.6      
Jul 15 18:54 NNW 24 16.09 Clear CLR 36 4     14%   34 1010.2 1009.5      
Jul 15 17:54 NNW 18 16.09 Clear CLR 37 8     17%   35 1010.5 1009.7      
Jul 15 16:54 WNW 18 16.09 Clear CLR 37 8     18%   35 1011.2 1010.4      
Jul 15 15:54 WNW 18 16.09 Clear CLR 36 9     19%   34 1011.9 1011      
Jul 15 14:54 WNW 21 16.09 Clear CLR 36 9     20%   34 1012.5 1011.8      
Jul 15 13:54 11 16.09 Clear CLR 36 7     17%   33 1013.6 1012.7      
Jul 15 12:54 WNW 21 16.09 Clear CLR 34 9     21%   32 1014.2 1013.4      
Jul 15 11:54 WNW 21 16.09 Clear CLR 34 9     22%   32 1014.6 1013.7      
Jul 15 10:54 WNW 8 16.09 Clear CLR 32 11     28%   30 1015.2 1014.4      
Jul 15 09:54 WNW 9 16.09 Clear CLR 31 11     29%   29 1015.2 1014.4      
Jul 15 08:54 Calm 16.09 Clear CLR 28 11     34%   28 1015.6 1014.6      
Jul 15 07:54 ESE 5 16.09 Clear CLR 27 11     38%   26 1015.6 1014.6      
Jul 15 06:54 ESE 8 16.09 Clear CLR 24 12     45%   24 1015.2 1014.5      
Jul 15 05:54 Calm 16.09 Clear CLR 23 12     51%   22 1014.9 1014.2      
Jul 15 04:54 E 8 16.09 Clear CLR 23 12     50%   23 1014.9 1013.9      
Jul 15 03:54 Calm 16.09 Clear CLR 23 13     53%   23 1014.6 1013.9      
Jul 15 02:54 Calm 16.09 Clear CLR 24 13     48%   24 1014.6 1013.8      
Jul 15 01:54 NNW 9 16.09 Clear CLR 24 14     54%   24 1014.6 1013.6      
Jul 15 00:54 NW 15 16.09 Clear CLR 25 15     54%   25 1014.2 1013.5      
Jul 14 23:54 WNW 18 16.09 Clear CLR 29 12     36%   28 1013.9 1013.1      
Jul 14 22:54 NNW 9 16.09 Clear CLR 28 11     33%   27 1013.2 1012.6      
Jul 14 21:54 N 13 16.09 Clear CLR 32 11     27%   31 1012.9 1011.9      
Jul 14 20:54 N 9 16.09 Clear CLR 34 13     28%   33 1011.9 1011.1      
Jul 14 19:54 N 13 16.09 Clear CLR 37 10     20%   35 1011.5 1010.6      
Jul 14 18:54 NNW 18 16.09 Clear CLR 38 11     20%   36 1011.2 1010.3      
Jul 14 17:54 NNW 22 16.09 Clear CLR 39 10     18%   37 1011.2 1010.2      
Jul 14 16:54 N 22 16.09 Clear CLR 39 8     15%   37 1011.5 1010.6      
Jul 14 15:54 NW 13 16.09 Clear CLR 39 11     18%   38 1011.9 1011      
Jul 14 14:54 WNW 18 16.09 Clear CLR 38 10     18%   37 1012.9 1011.8      
Jul 14 13:54 W 17 16.09 Clear CLR 37 12     22%   36 1013.2 1012.4      
Jul 14 12:54 W 11 16.09 Clear CLR 36 12     24%   34 1013.9 1012.9      
Jul 14 11:54 NW 15 16.09 Clear CLR 34 13     27%   33 1014.2 1013.3      
Jul 14 10:54 Calm 16.09 Clear CLR 33 15     34%   32 1014.2 1013.4      
Jul 14 09:54 Calm 16.09 Clear CLR 31 15     39%   30 1014.6 1013.5      
Jul 14 08:54 5 16.09 Clear CLR 29 14     41%   29 1014.2 1013.5      
Jul 14 07:54 SE 11 16.09 Clear CLR 27 14     45%   27 1013.9 1013.1      
Jul 14 06:54 SE 9 16.09 Clear CLR 26 14     50%   26 1013.6 1012.7      
Jul 14 05:54 ESE 8 16.09 Clear CLR 24 15     56%   24 1013.2 1012.3      
Jul 14 04:54 Calm 16.09 Clear CLR 24 12     48%   24 1012.5 1011.8      
Jul 14 03:54 Calm 16.09 Clear CLR 26 13     44%   26 1012.2 1011.2      
Jul 14 02:54 Calm 16.09 Clear CLR 28 13     41%   28 1011.5 1010.8      
Jul 14 01:54 N 13 16.09 Clear CLR 28 13     41%   28 1011.5 1010.6      
Jul 14 00:54 N 11 16.09 Clear CLR 30 14     37%   29 1011.2 1010.4      
Jul 13 23:54 5 16.09 Clear CLR 29 12     35%   29 1010.8 1010      
Jul 13 22:54 N 8 16.09 Clear CLR 31 13     34%   30 1010.2 1009.2      
Jul 13 21:54 N 5 16.09 Clear CLR 32 13     31%   31 1009.5 1008.6      
Jul 13 20:54 N 8 16.09 Clear CLR 34 13     29%   33 1008.5 1007.8      
Jul 13 19:54 NNW 11 16.09 Clear CLR 36 13     26%   35 1008.1 1007.3      
Jul 13 18:54 NNW 21 16.09 Clear CLR 38 13     23%   37 1007.8 1006.9      
Jul 13 17:54 NW 15 16.09 Clear CLR 39 12     20%   38 1007.8 1007      
Jul 13 16:54 WNW 13 16.09 Clear CLR 38 12     20%   37 1007.8 1007      
Jul 13 15:54 WNW 22 16.09 Clear CLR 38 12     21%   37 1008.5 1007.5      
Jul 13 14:54 WNW 15 16.09 Clear CLR 38 13     23%   37 1009.2 1008.3      
Jul 13 13:54 WNW 15 16.09 Clear CLR 37 12     23%   36 1009.8 1009      
Jul 13 12:54 WNW 15 16.09 Clear CLR 36 13     25%   35 1010.5 1009.5      
Jul 13 11:54 NNW 11 16.09 Clear CLR 34 14     31%   33 1010.8 1010      
Jul 13 10:54 W 9 16.09 Clear CLR 32 14     34%   32 1011.2 1010.3      
Jul 13 09:54 WSW 9 16.09 Clear CLR 31 14     35%   30 1011.2 1010.4      
Jul 13 08:54 SSE 9 16.09 Clear CLR 28 13     40%   28 1011.2 1010.5      
Jul 13 07:54 SSE 9 16.09 Clear CLR 26 14     47%   26 1011.5 1010.6      
Jul 13 06:54 SSE 11 16.09 Clear CLR 25 13     47%   25 1010.8 1010      
Jul 13 05:54 SSE 9 16.09 Clear CLR 23 12     50%   23 1010.5 1009.7      
Jul 13 04:54 SE 5 16.09 Clear CLR 25 12     45%   25 1010.2 1009.3      
Jul 13 02:54 Calm 16.09 Clear CLR 26 11     39%   26 1009.5 1008.9      
Jul 13 00:54 ESE 5 16.09 Clear CLR 29 12     35%   28 1009.8 1009      
Jul 12 22:54 ENE 8 16.09 Clear   30 9     28%   29 1009.5 1008.8      
Jul 12 21:54 Calm 16.09 Clear CLR 31 11     29%   29 1009.2 1008.5      
Jul 12 20:54 Calm 16.09 Clear CLR 33 11     27%   31 1008.8 1008      
Jul 12 19:54 NW 11 16.09 Clear CLR 34 9     22%   33 1008.5 1007.6      
Jul 12 18:54 NW 15 16.09 Clear CLR 36 9     19%   34 1008.1 1007.3      
Jul 12 17:54 NW 18 16.09 Clear CLR 37 11     21%   35 1008.1 1007.4      
Jul 12 16:54 NW 17 16.09 Clear CLR 37 12     23%   36 1008.5 1007.8      
Jul 12 15:54 WNW 24 16.09 Clear CLR 37 11     21%   36 1009.2 1008.5      
Jul 12 14:54 WNW 22 16.09 Clear CLR 36 11     22%   35 1009.8 1009.1      
Jul 12 13:54 W 13 16.09 Clear CLR 36 13     25%   35 1010.8 1009.9      
Jul 12 12:54 WNW 11 16.09 Clear CLR 33 13     29%   32 1011.2 1010.5      
Jul 12 11:54 NW 8 16.09 Clear CLR 32 13     31%   31 1012.2 1011.3      
Jul 12 10:54 5 16.09 Clear CLR 31 13     34%   30 1012.5 1011.8      
Jul 12 09:54 S 5 16.09 Clear CLR 28 13     38%   28 1012.9 1012.2      
Jul 12 08:54 SE 11 16.09 Clear CLR 27 14     45%   27 1013.6 1012.7      
Jul 12 07:54 SE 9 16.09 Clear CLR 24 14     54%   24 1013.9 1013      
Jul 12 06:54 SE 11 14.48 Clear CLR 23 14     59%   23 1013.6 1012.8      
Jul 12 05:54 S 8 16.09 Clear CLR 22 14     61%   22 1013.2 1012.4      
Jul 12 04:54 NW 8 16.09 Clear CLR 22 14     63%   22 1012.9 1012      
Jul 12 03:54 NW 11 16.09 Clear CLR 22 16     66%   22 1012.5 1011.9      
Jul 12 02:54 Calm 16.09 Clear CLR 24 14     52%   24 1012.5 1011.8      
Jul 12 01:54 NW 11 16.09 Clear CLR 26 13     45%   25 1012.5 1011.9      
Jul 12 00:54 Calm 16.09 Clear CLR 28 13     38%   28 1012.9 1012      
Jul 11 23:54 Calm 16.09 Clear CLR 28 13     38%   28 1012.9 1012.1      
Jul 11 22:54 ENE 8 16.09 Clear CLR 29 12     35%   29 1012.9 1012.1      
Jul 11 21:54 N 11 16.09 Clear CLR 31 12     31%   30 1012.9 1012.1      
Jul 11 20:54 N 9 16.09 Clear CLR 31 12     32%   30 1012.5 1011.6      
Jul 11 19:54 NW 11 16.09 Clear CLR 33 12     28%   32 1012.2 1011.4      
Jul 11 18:54 NW 17 16.09 Clear CLR 35 12     24%   34 1012.2 1011.3      
Jul 11 17:54 NW 18 16.09 Clear CLR 36 12     24%   34 1012.2 1011.5      
Jul 11 16:54 W 15 16.09 Clear CLR 36 12     24%   34 1012.9 1011.9      
Jul 11 15:54 WNW 18 16.09 Clear CLR 34 11     24%   33 1013.6 1012.6      
Jul 11 14:54 NW 21 16.09 Clear CLR 34 11     23%   33 1014.2 1013.3      
Jul 11 13:54 WNW 15 11.27 Mostly Clear FEW002 34 11     25%   32 1014.6 1013.8      
Jul 11 13:49 NNW 13 4.83 Haze FEW002 33 11     26%   31 1014.6        
Jul 11 12:54   16.09 Clear CLR 32 13     32%   31 1015.2 1014.4      
Jul 11 10:54 9 16.09 Clear CLR 29 14     40%   28 1016.6 1015.7      
Jul 11 08:54 S 11 16.09 Clear CLR 26 14     48%   25 1017.3 1016.4      
Jul 11 07:54 SSE 11 16.09 Clear CLR 24 14     54%   24 1016.9 1016.3      
Jul 11 06:54 SE 11 16.09 Clear CLR 22 13     55%   22 1016.9 1016.1      
Jul 11 05:54 Calm 12.87 Clear CLR 22 13     57%   22 1016.6 1015.7      
Jul 11 04:54 NNW 5 16.09 Clear CLR 22 14     61%   22 1016.3 1015.4      
Jul 11 03:54 WNW 9 16.09 Clear CLR 22 14     63%   22 1015.6 1014.9      
Jul 11 02:54 N 8 16.09 Clear CLR 23 13     53%   23 1015.6 1014.8      
Jul 10 23:54 ENE 8 16.09 Clear CLR 28 11     34%   27 1015.6 1014.9      
Jul 10 22:54 Calm 16.09 Clear CLR 28 9     32%   27 1015.6 1014.9      
Jul 10 21:54 Calm 16.09 Clear CLR 29 9     29%   28 1015.6 1014.7      
Jul 10 20:54 N 8 16.09 Clear CLR 29 9     29%   28 1014.9 1014      
Jul 10 18:54 NW 18 16.09 Clear CLR 34 9     22%   32 1014.2 1013.7      
Jul 10 17:54 WNW 13 16.09 Clear CLR 34 11     25%   32 1014.2 1013.7      
Jul 10 15:54 W 13 16.09 Clear CLR 34 9     22%   32 1015.2 1014.7      
Jul 10 11:54 NW 15 16.09 Clear CLR 29 11     33%   28 1017.6 1016.8      
Jul 10 10:54 Calm 16.09 Clear CLR 27 12     39%   26 1018 1017.1      
Jul 10 09:54 8 16.09 Clear   26 12     42%   25 1018 1017.3      
Jul 10 08:54 SSW 9 16.09 Clear CLR 24 12     46%   24 1018.3 1017.5      
Jul 10 06:54 SE 9 16.09 Clear CLR 21 12     57%     1017.6 1016.9      
Jul 10 05:54 Calm 16.09 Clear CLR 19 12     61%     1017.3 1016.7      
Jul 10 04:54 Calm 16.09 Clear CLR 19 11     59%     1016.6 1016.1      
Jul 10 03:54 NNW 8 16.09 Clear CLR 20 11     55%     1016.3 1015.6      
Jul 10 02:54 NW 11 16.09 Clear CLR 21 8     42%     1015.9 1015.1      
Jul 10 01:54 WNW 11 16.09 Clear CLR 23 7     36%   23 1015.6 1014.9      
Jul 10 00:54 Calm 16.09 Clear CLR 26 7     30%   25 1015.2 1014.6      
Jul 09 23:54 N 8 16.09 Clear CLR 24 6     32%   23 1015.2 1014.5      
Jul 09 22:54 N 11 16.09 Clear CLR 25 7     31%   24 1014.9 1014.3      
Jul 09 21:54 N 8 16.09 Clear CLR 27 7     28%   26 1014.9 1014.1      
Jul 09 20:54 N 11 16.09 Clear CLR 29 7     24%   28 1014.2 1013.6      
Jul 09 19:54 NNW 11 16.09 Clear CLR 31 6     21%   29 1013.9 1013.1      
Jul 09 18:54 N 21 16.09 Clear   33        %     1013.6 1012.7      
Jul 09 17:54 WNW 18 16.09 Clear CLR 33 7     20%   31 1013.2 1012.5      
Jul 09 16:54 WNW 21 16.09 Clear CLR 33 7     20%   31 1013.6 1012.8      
Jul 09 15:54 W 21 16.09 Clear CLR 33 8     22%   31 1013.9 1013.2      
Jul 09 14:54 NW 18 16.09 Clear CLR 33 8     21%   31 1014.6 1013.8      
Jul 09 13:54 5 16.09 Clear CLR 32 9     24%   30 1015.2 1014.4      
Jul 09 12:54 Calm 16.09 Clear CLR 30 7     24%   28 1015.6 1014.9      
Jul 09 11:54 Calm 16.09 Clear CLR 28 6     24%   27 1016.3 1015.5      
Jul 09 10:54 Calm 16.09 Clear CLR 26 10     36%   26 1016.3 1015.6      
May 13 14:54 WNW 17 16.09 Clear CLR 27 7     29%   26 1012.9 1012.2      
May 12 17:54 WNW 28 16.09 Clear CLR 28 3     21%   27 1009.2 1008.7      
May 12 12:54 WSW 9 16.09 Clear CLR 26 5     27%   25 1011.5 1010.9      
May 12 00:54 E 9 16.09 Clear CLR 19 6     42%     1007.8 1007      
Jun 11 23:54 N 30 16.09 Mostly Cloudy BKN080 16 6     50%     1015.2 1014.9      
Jun 11 09:54 NNW 21 16.09 Mostly Clear FEW039 18 6     46%     1013.6 1013.2      
Jun 11 07:54 NNW 24 16.09 Clear CLR 16 7     54%     1012.9 1012.6      
Jun 10 21:54 N 9 16.09 Clear CLR 22 8     41%   21 1010.5 1009.9      
Jun 10 18:54 NW 17 16.09 Clear CLR 25 8     33%   24 1009.8 1009.3      
Jun 10 15:54 W 17 16.09 Clear CLR 25 8     35%   24 1010.8 1010.4      
Jun 10 08:54 NW 13 16.09 Cloudy OVC048 17 6     48%     1014.6 1014      
Jun 08 21:54 NW 22 16.09 Clear   24 9     37%   24 1013.2 1012.4      
Jun 08 14:01 W 17 14.48 Mostly Clear FEW001 31 3     17%   29 1013.9        
Jun 08 11:54 W 11 16.09 Clear CLR 27 8     29%   27 1014.9 1014.3      
Jun 08 06:54 ENE 8 16.09 Clear CLR 21 8     44%     1014.9 1014.1      
Jun 07 08:54 5 16.09 Clear CLR 26 7     31%   25 1011.5 1010.7